Time,TemperatureF,DewpointF,PressureIn,WindDirection,WindDirectionDegrees,WindSpeedMPH,WindSpeedGustMPH,Humidity,HourlyPrecipIn,Conditions,Clouds,dailyrainin,SoftwareType,DateUTC
2013-10-07 00:01:00,53.4,52.0,29.70,SW,229,0.0,1.0,95,0.03,,-RA,2.22,VWS V14.01,2013-10-07 04:01:00,
2013-10-07 00:06:00,53.3,51.9,29.68,West,275,0.0,0.0,95,0.03,,-RA,0.00,VWS V14.01,2013-10-07 04:06:00,
2013-10-07 00:11:00,53.2,51.8,29.69,SSW,200,1.0,1.0,95,0.05,,-RA,0.02,VWS V14.01,2013-10-07 04:11:00,
2013-10-07 00:16:00,53.2,51.8,29.70,SSW,202,0.0,1.0,95,0.05,,-RA,0.02,VWS V14.01,2013-10-07 04:16:00,
2013-10-07 00:21:00,53.2,51.8,29.70,SSW,203,1.0,1.0,95,0.07,,-RA,0.04,VWS V14.01,2013-10-07 04:21:00,
2013-10-07 00:26:00,53.2,51.8,29.71,SSW,204,2.0,2.0,95,0.09,,-RA,0.06,VWS V14.01,2013-10-07 04:26:00,
2013-10-07 00:31:00,53.2,51.8,29.71,SSW,204,0.0,0.0,95,0.09,,-RA,0.06,VWS V14.01,2013-10-07 04:31:00,
2013-10-07 00:36:00,53.2,51.8,29.71,WSW,238,1.0,2.0,95,0.09,,-RA,0.07,VWS V14.01,2013-10-07 04:36:00,
2013-10-07 00:41:00,53.2,51.8,29.71,SSW,199,1.0,1.0,95,0.08,,-RA,0.07,VWS V14.01,2013-10-07 04:41:00,
2013-10-07 00:46:00,53.3,51.9,29.72,SSW,200,2.0,2.0,95,0.08,,-RA,0.07,VWS V14.01,2013-10-07 04:46:00,
2013-10-07 00:51:00,53.3,51.9,29.72,SSW,213,2.0,4.0,95,0.08,,-RA,0.07,VWS V14.01,2013-10-07 04:51:00,
2013-10-07 00:56:00,53.3,52.2,29.72,SSW,211,1.0,1.0,96,0.08,,-RA,0.07,VWS V14.01,2013-10-07 04:56:00,
2013-10-07 01:01:00,53.4,52.3,29.71,WSW,252,1.0,1.0,96,0.07,,OVC015,0.07,VWS V14.01,2013-10-07 05:01:00,
2013-10-07 01:06:00,53.5,52.4,29.71,SSW,193,2.0,3.0,96,0.07,,OVC015,0.07,VWS V14.01,2013-10-07 05:06:00,
2013-10-07 01:11:00,53.5,52.4,29.71,SSW,200,0.0,0.0,96,0.05,,OVC015,0.07,VWS V14.01,2013-10-07 05:11:00,
2013-10-07 01:16:00,53.6,52.5,29.71,SW,230,0.0,0.0,96,0.05,,OVC015,0.07,VWS V14.01,2013-10-07 05:16:00,
2013-10-07 01:21:00,53.7,52.6,29.71,SW,223,0.0,2.0,96,0.03,,OVC015,0.07,VWS V14.01,2013-10-07 05:21:00,
2013-10-07 01:26:00,53.7,52.6,29.71,WSW,238,3.0,3.0,96,0.01,,OVC015,0.07,VWS V14.01,2013-10-07 05:26:00,
2013-10-07 01:31:00,53.8,52.4,29.72,WSW,252,0.0,1.0,95,0.01,,OVC031,0.07,VWS V14.01,2013-10-07 05:31:00,
2013-10-07 01:36:00,53.8,52.4,29.71,South,178,0.0,2.0,95,0.00,,OVC031,0.07,VWS V14.01,2013-10-07 05:36:00,
2013-10-07 01:41:00,53.8,52.4,29.71,West,269,0.0,3.0,95,0.00,,OVC031,0.07,VWS V14.01,2013-10-07 05:41:00,
2013-10-07 01:46:00,53.7,52.3,29.72,West,259,0.0,1.0,95,0.00,,OVC031,0.07,VWS V14.01,2013-10-07 05:46:00,
2013-10-07 01:51:00,53.8,52.4,29.72,WSW,246,0.0,0.0,95,0.00,,OVC033,0.07,VWS V14.01,2013-10-07 05:51:00,
2013-10-07 01:56:00,53.8,52.4,29.73,WSW,250,0.0,1.0,95,0.00,,OVC033,0.07,VWS V14.01,2013-10-07 05:56:00,
2013-10-07 02:01:00,53.7,52.3,29.72,WSW,258,0.0,1.0,95,0.00,,OVC035,0.07,VWS V14.01,2013-10-07 06:01:00,
2013-10-07 02:06:00,53.7,52.3,29.72,WSW,241,1.0,1.0,95,0.00,,OVC035,0.07,VWS V14.01,2013-10-07 06:06:00,
2013-10-07 02:11:00,53.7,52.3,29.73,WNW,296,0.0,1.0,95,0.00,,OVC035,0.07,VWS V14.01,2013-10-07 06:11:00,
2013-10-07 02:16:00,53.7,52.3,29.73,SW,222,0.0,0.0,95,0.00,,OVC035,0.07,VWS V14.01,2013-10-07 06:16:00,
2013-10-07 02:21:00,53.7,52.3,29.73,SSW,209,1.0,2.0,95,0.00,,OVC035,0.07,VWS V14.01,2013-10-07 06:21:00,
2013-10-07 02:26:00,53.7,52.3,29.73,West,263,0.0,2.0,95,0.00,,OVC035,0.07,VWS V14.01,2013-10-07 06:26:00,
2013-10-07 02:31:00,53.6,52.2,29.73,WSW,247,1.0,2.0,95,0.00,,OVC035,0.07,VWS V14.01,2013-10-07 06:31:00,
2013-10-07 02:36:00,53.6,52.2,29.72,WSW,237,0.0,1.0,95,0.00,,OVC035,0.07,VWS V14.01,2013-10-07 06:36:00,
2013-10-07 02:41:00,53.6,52.2,29.72,SW,232,0.0,1.0,95,0.00,,OVC035,0.07,VWS V14.01,2013-10-07 06:41:00,
2013-10-07 02:46:00,53.5,52.1,29.72,West,262,0.0,0.0,95,0.00,,OVC035,0.07,VWS V14.01,2013-10-07 06:46:00,
2013-10-07 02:51:00,53.5,52.1,29.72,SW,233,0.0,0.0,95,0.00,,OVC035,0.07,VWS V14.01,2013-10-07 06:51:00,
2013-10-07 02:56:00,53.3,51.9,29.72,West,267,0.0,1.0,95,0.00,,OVC035,0.07,VWS V14.01,2013-10-07 06:56:00,
2013-10-07 03:01:00,53.2,51.8,29.72,WSW,238,0.0,0.0,95,0.00,,BKN060,0.07,VWS V14.01,2013-10-07 07:01:00,
2013-10-07 03:06:00,53.1,51.7,29.72,WSW,248,0.0,0.0,95,0.00,,BKN060,0.07,VWS V14.01,2013-10-07 07:06:00,
2013-10-07 03:11:00,53.0,51.6,29.72,WSW,245,0.0,0.0,95,0.00,,BKN060,0.07,VWS V14.01,2013-10-07 07:11:00,
2013-10-07 03:16:00,52.9,51.5,29.72,West,280,0.0,1.0,95,0.00,,BKN060,0.07,VWS V14.01,2013-10-07 07:16:00,
2013-10-07 03:21:00,52.7,51.3,29.71,WSW,258,0.0,0.0,95,0.00,,BKN060,0.07,VWS V14.01,2013-10-07 07:21:00,
2013-10-07 03:26:00,52.6,51.2,29.71,West,268,0.0,0.0,95,0.00,,BKN060,0.07,VWS V14.01,2013-10-07 07:26:00,
2013-10-07 03:31:00,52.5,51.1,29.71,West,265,1.0,1.0,95,0.00,,BKN060,0.07,VWS V14.01,2013-10-07 07:31:00,
2013-10-07 03:36:00,52.3,50.9,29.71,WSW,251,0.0,0.0,95,0.00,,BKN060,0.07,VWS V14.01,2013-10-07 07:36:00,
2013-10-07 03:41:00,52.2,50.5,29.71,West,269,0.0,0.0,94,0.00,,BKN060,0.07,VWS V14.01,2013-10-07 07:41:00,
2013-10-07 03:46:00,51.9,50.5,29.71,West,274,0.0,0.0,95,0.00,,BKN060,0.07,VWS V14.01,2013-10-07 07:46:00,
2013-10-07 03:51:00,51.7,50.0,29.72,West,274,0.0,0.0,94,0.00,,BKN060,0.07,VWS V14.01,2013-10-07 07:51:00,
2013-10-07 03:56:00,51.5,49.8,29.72,West,273,0.0,0.0,94,0.00,,BKN060,0.07,VWS V14.01,2013-10-07 07:56:00,
2013-10-07 04:01:00,51.3,49.6,29.71,West,273,0.0,0.0,94,0.00,,CLR,0.07,VWS V14.01,2013-10-07 08:01:00,
2013-10-07 04:06:00,51.0,49.3,29.72,West,273,0.0,0.0,94,0.00,,CLR,0.07,VWS V14.01,2013-10-07 08:06:00,
2013-10-07 04:11:00,50.8,49.1,29.72,West,273,0.0,0.0,94,0.00,,CLR,0.07,VWS V14.01,2013-10-07 08:11:00,
2013-10-07 04:16:00,50.6,48.9,29.72,West,273,0.0,0.0,94,0.00,,CLR,0.07,VWS V14.01,2013-10-07 08:16:00,
2013-10-07 04:21:00,50.4,48.7,29.72,West,273,0.0,0.0,94,0.00,,CLR,0.07,VWS V14.01,2013-10-07 08:21:00,
2013-10-07 04:26:00,50.3,48.6,29.72,West,273,0.0,0.0,94,0.00,,CLR,0.07,VWS V14.01,2013-10-07 08:26:00,
2013-10-07 04:31:00,50.1,48.7,29.72,West,273,0.0,0.0,95,0.00,,CLR,0.07,VWS V14.01,2013-10-07 08:31:00,
2013-10-07 04:36:00,50.0,48.6,29.73,West,273,0.0,0.0,95,0.00,,CLR,0.07,VWS V14.01,2013-10-07 08:36:00,
2013-10-07 04:41:00,49.9,48.5,29.73,West,273,0.0,0.0,95,0.00,,CLR,0.07,VWS V14.01,2013-10-07 08:41:00,
2013-10-07 04:46:00,49.7,48.3,29.73,WSW,247,1.0,1.0,95,0.00,,CLR,0.07,VWS V14.01,2013-10-07 08:46:00,
2013-10-07 04:51:00,49.6,48.2,29.73,WSW,258,0.0,0.0,95,0.00,,CLR,0.07,VWS V14.01,2013-10-07 08:51:00,
2013-10-07 04:56:00,49.5,48.1,29.73,WSW,258,0.0,0.0,95,0.00,,CLR,0.07,VWS V14.01,2013-10-07 08:56:00,
2013-10-07 05:01:00,49.4,48.0,29.73,WSW,258,0.0,0.0,95,0.00,,CLR,0.07,VWS V14.01,2013-10-07 09:01:00,
2013-10-07 05:06:00,49.4,48.0,29.73,WSW,258,0.0,0.0,95,0.00,,CLR,0.07,VWS V14.01,2013-10-07 09:06:00,
2013-10-07 05:11:00,49.2,47.8,29.73,WSW,258,0.0,0.0,95,0.00,,CLR,0.07,VWS V14.01,2013-10-07 09:11:00,
2013-10-07 05:16:00,49.1,47.7,29.73,WSW,258,0.0,0.0,95,0.00,,CLR,0.07,VWS V14.01,2013-10-07 09:16:00,
2013-10-07 05:21:00,48.9,47.5,29.73,WSW,258,0.0,0.0,95,0.00,,CLR,0.07,VWS V14.01,2013-10-07 09:21:00,
2013-10-07 05:26:00,48.8,47.4,29.73,WSW,258,0.0,0.0,95,0.00,,CLR,0.07,VWS V14.01,2013-10-07 09:26:00,
2013-10-07 05:31:00,48.6,47.2,29.73,WSW,258,0.0,0.0,95,0.00,,CLR,0.07,VWS V14.01,2013-10-07 09:31:00,
2013-10-07 05:36:00,48.5,47.1,29.73,WSW,258,0.0,0.0,95,0.00,,CLR,0.07,VWS V14.01,2013-10-07 09:36:00,
2013-10-07 05:41:00,48.4,47.0,29.73,WSW,258,0.0,1.0,95,0.00,,CLR,0.07,VWS V14.01,2013-10-07 09:41:00,
2013-10-07 05:46:00,48.3,46.9,29.73,WSW,258,0.0,0.0,95,0.00,,CLR,0.07,VWS V14.01,2013-10-07 09:46:00,
2013-10-07 05:51:00,48.3,46.9,29.73,WSW,258,0.0,0.0,95,0.00,,CLR,0.07,VWS V14.01,2013-10-07 09:51:00,
2013-10-07 05:56:00,48.2,46.8,29.74,WSW,258,0.0,0.0,95,0.00,,CLR,0.07,VWS V14.01,2013-10-07 09:56:00,
2013-10-07 06:01:00,48.1,46.7,29.74,WSW,258,0.0,0.0,95,0.00,,CLR,0.07,VWS V14.01,2013-10-07 10:01:00,
2013-10-07 06:06:00,48.0,46.6,29.74,WSW,258,0.0,0.0,95,0.00,,CLR,0.07,VWS V14.01,2013-10-07 10:06:00,
2013-10-07 06:11:00,47.9,46.5,29.74,WSW,258,0.0,0.0,95,0.00,,CLR,0.07,VWS V14.01,2013-10-07 10:11:00,
2013-10-07 06:16:00,47.8,46.4,29.74,WSW,258,0.0,0.0,95,0.00,,CLR,0.07,VWS V14.01,2013-10-07 10:16:00,
2013-10-07 06:21:00,47.8,46.4,29.74,WSW,258,0.0,0.0,95,0.00,,CLR,0.07,VWS V14.01,2013-10-07 10:21:00,
2013-10-07 06:26:00,47.7,46.3,29.74,WSW,258,0.0,0.0,95,0.00,,CLR,0.07,VWS V14.01,2013-10-07 10:26:00,
2013-10-07 06:31:00,47.7,46.3,29.74,WSW,258,0.0,0.0,95,0.00,,CLR,0.07,VWS V14.01,2013-10-07 10:31:00,
2013-10-07 06:36:00,47.7,46.3,29.74,WSW,258,0.0,0.0,95,0.00,,CLR,0.07,VWS V14.01,2013-10-07 10:36:00,
2013-10-07 06:41:00,47.6,46.2,29.74,WSW,258,0.0,1.0,95,0.00,,CLR,0.07,VWS V14.01,2013-10-07 10:41:00,
2013-10-07 06:46:00,47.6,46.2,29.75,WSW,258,0.0,0.0,95,0.00,,CLR,0.07,VWS V14.01,2013-10-07 10:46:00,
2013-10-07 06:51:00,47.6,46.2,29.75,WSW,258,1.0,1.0,95,0.00,,CLR,0.07,VWS V14.01,2013-10-07 10:51:00,
2013-10-07 06:56:00,47.6,46.2,29.75,WSW,258,0.0,0.0,95,0.00,,CLR,0.07,VWS V14.01,2013-10-07 10:56:00,
2013-10-07 07:01:00,47.6,46.2,29.75,WSW,258,0.0,0.0,95,0.00,,CLR,0.07,VWS V14.01,2013-10-07 11:01:00,
2013-10-07 07:06:00,47.6,46.2,29.75,WSW,258,0.0,0.0,95,0.00,,CLR,0.07,VWS V14.01,2013-10-07 11:06:00,
2013-10-07 07:11:00,47.5,46.1,29.75,WSW,258,0.0,0.0,95,0.00,,CLR,0.07,VWS V14.01,2013-10-07 11:11:00,
2013-10-07 07:16:00,47.4,46.0,29.75,WSW,258,0.0,0.0,95,0.00,,CLR,0.07,VWS V14.01,2013-10-07 11:16:00,
2013-10-07 07:21:00,47.4,46.0,29.75,WSW,258,0.0,0.0,95,0.00,,CLR,0.07,VWS V14.01,2013-10-07 11:21:00,
2013-10-07 07:26:00,47.3,45.9,29.76,WSW,258,0.0,0.0,95,0.00,,CLR,0.07,VWS V14.01,2013-10-07 11:26:00,
2013-10-07 07:31:00,47.2,45.8,29.76,WSW,258,0.0,0.0,95,0.00,,CLR,0.07,VWS V14.01,2013-10-07 11:31:00,
2013-10-07 07:36:00,47.1,45.7,29.76,WSW,258,0.0,0.0,95,0.00,,CLR,0.07,VWS V14.01,2013-10-07 11:36:00,
2013-10-07 07:41:00,47.1,45.7,29.76,WSW,258,0.0,0.0,95,0.00,,CLR,0.07,VWS V14.01,2013-10-07 11:41:00,
2013-10-07 07:46:00,47.0,45.7,29.76,WSW,258,0.0,0.0,95,0.00,,CLR,0.07,VWS V14.01,2013-10-07 11:46:00,
2013-10-07 07:51:00,46.9,45.5,29.76,WSW,258,0.0,0.0,95,0.00,,CLR,0.07,VWS V14.01,2013-10-07 11:51:00,
2013-10-07 07:56:00,46.8,45.5,29.77,WSW,258,0.0,0.0,95,0.00,,CLR,0.07,VWS V14.01,2013-10-07 11:56:00,
2013-10-07 08:01:00,46.7,45.3,29.77,WSW,258,0.0,0.0,95,0.00,,BKN050,0.07,VWS V14.01,2013-10-07 12:01:00,
2013-10-07 08:06:00,46.7,45.3,29.77,WSW,258,0.0,0.0,95,0.00,,BKN050,0.07,VWS V14.01,2013-10-07 12:06:00,
2013-10-07 08:11:00,46.7,45.3,29.77,WSW,258,0.0,0.0,95,0.00,,BKN050,0.07,VWS V14.01,2013-10-07 12:11:00,
2013-10-07 08:16:00,46.9,45.5,29.78,WSW,258,0.0,0.0,95,0.00,,BKN050,0.07,VWS V14.01,2013-10-07 12:16:00,
2013-10-07 08:21:00,47.0,45.7,29.78,WSW,254,0.0,0.0,95,0.00,,BKN050,0.07,VWS V14.01,2013-10-07 12:21:00,
2013-10-07 08:26:00,47.2,45.8,29.78,WSW,254,0.0,0.0,95,0.00,,BKN050,0.07,VWS V14.01,2013-10-07 12:26:00,
2013-10-07 08:31:00,47.3,45.9,29.78,South,188,1.0,2.0,95,0.00,,BKN050,0.07,VWS V14.01,2013-10-07 12:31:00,
2013-10-07 08:36:00,47.5,46.1,29.79,South,188,1.0,1.0,95,0.00,,BKN050,0.07,VWS V14.01,2013-10-07 12:36:00,
2013-10-07 08:41:00,47.7,46.3,29.79,South,188,0.0,0.0,95,0.00,,BKN050,0.07,VWS V14.01,2013-10-07 12:41:00,
2013-10-07 08:46:00,47.9,46.5,29.80,SW,228,0.0,1.0,95,0.00,,BKN050,0.07,VWS V14.01,2013-10-07 12:46:00,
2013-10-07 08:51:00,48.0,46.6,29.80,SSW,196,0.0,1.0,95,0.00,,BKN050,0.07,VWS V14.01,2013-10-07 12:51:00,
2013-10-07 08:56:00,48.1,46.7,29.80,SSW,201,0.0,1.0,95,0.00,,BKN050,0.07,VWS V14.01,2013-10-07 12:56:00,
2013-10-07 09:01:00,48.3,46.9,29.80,SW,225,0.0,1.0,95,0.00,,OVC045,0.07,VWS V14.01,2013-10-07 13:01:00,
2013-10-07 09:06:00,48.4,46.8,29.81,SSW,194,0.0,2.0,94,0.00,,OVC045,0.07,VWS V14.01,2013-10-07 13:06:00,
2013-10-07 09:11:00,48.6,47.0,29.81,South,183,3.0,3.0,94,0.00,,OVC045,0.07,VWS V14.01,2013-10-07 13:11:00,
2013-10-07 09:16:00,48.7,47.0,29.81,SW,218,1.0,1.0,94,0.00,,OVC045,0.07,VWS V14.01,2013-10-07 13:16:00,
2013-10-07 09:21:00,48.8,47.2,29.81,SW,217,1.0,2.0,94,0.00,,OVC045,0.07,VWS V14.01,2013-10-07 13:21:00,
2013-10-07 09:26:00,49.0,47.1,29.82,SW,223,0.0,5.0,93,0.00,,OVC045,0.07,VWS V14.01,2013-10-07 13:26:00,
2013-10-07 09:31:00,49.2,47.3,29.82,South,179,0.0,1.0,93,0.00,,OVC045,0.07,VWS V14.01,2013-10-07 13:31:00,
2013-10-07 09:36:00,49.3,47.4,29.81,WSW,243,1.0,1.0,93,0.00,,OVC045,0.07,VWS V14.01,2013-10-07 13:36:00,
2013-10-07 09:41:00,49.5,47.6,29.81,South,188,1.0,4.0,93,0.00,,OVC045,0.07,VWS V14.01,2013-10-07 13:41:00,
2013-10-07 09:46:00,49.7,47.5,29.82,SSW,198,0.0,2.0,92,0.00,,OVC045,0.07,VWS V14.01,2013-10-07 13:46:00,
2013-10-07 09:51:00,50.1,47.6,29.82,West,269,3.0,4.0,91,0.00,,OVC045,0.07,VWS V14.01,2013-10-07 13:51:00,
2013-10-07 09:56:00,50.4,47.9,29.82,South,182,3.0,3.0,91,0.00,,OVC045,0.07,VWS V14.01,2013-10-07 13:56:00,
2013-10-07 10:01:00,50.7,47.9,29.82,SSW,199,1.0,3.0,90,0.00,,FEW044,0.07,VWS V14.01,2013-10-07 14:01:00,
2013-10-07 10:06:00,51.0,48.5,29.82,WSW,239,2.0,3.0,91,0.00,,FEW044,0.07,VWS V14.01,2013-10-07 14:06:00,
2013-10-07 10:11:00,51.2,48.4,29.82,West,261,0.0,6.0,90,0.00,,FEW044,0.07,VWS V14.01,2013-10-07 14:11:00,
2013-10-07 10:16:00,51.5,48.7,29.82,SSW,211,0.0,4.0,90,0.00,,FEW044,0.07,VWS V14.01,2013-10-07 14:16:00,
2013-10-07 10:21:00,51.8,48.4,29.82,South,180,2.0,5.0,88,0.00,,FEW044,0.07,VWS V14.01,2013-10-07 14:21:00,
2013-10-07 10:26:00,52.1,48.4,29.82,NW,318,7.0,7.0,87,0.00,,FEW044,0.07,VWS V14.01,2013-10-07 14:26:00,
2013-10-07 10:31:00,52.4,48.3,29.82,SW,232,2.0,4.0,86,0.00,,FEW044,0.07,VWS V14.01,2013-10-07 14:31:00,
2013-10-07 10:36:00,52.5,48.1,29.83,WSW,240,2.0,3.0,85,0.00,,FEW044,0.07,VWS V14.01,2013-10-07 14:36:00,
2013-10-07 10:41:00,52.8,48.7,29.83,SSW,200,0.0,3.0,86,0.00,,FEW044,0.07,VWS V14.01,2013-10-07 14:41:00,
2013-10-07 10:46:00,53.1,49.0,29.83,SW,236,1.0,3.0,86,0.00,,FEW044,0.07,VWS V14.01,2013-10-07 14:46:00,
2013-10-07 10:51:00,53.3,48.9,29.83,East,91,2.0,4.0,85,0.00,,FEW044,0.07,VWS V14.01,2013-10-07 14:51:00,
2013-10-07 10:56:00,53.6,48.6,29.83,SW,230,7.0,7.0,83,0.00,,FEW044,0.07,VWS V14.01,2013-10-07 14:56:00,
2013-10-07 11:01:00,53.9,48.5,29.84,SW,223,2.0,5.0,82,0.00,,FEW021,0.07,VWS V14.01,2013-10-07 15:01:00,
2013-10-07 11:06:00,54.0,48.3,29.83,South,180,2.0,4.0,81,0.00,,FEW021,0.07,VWS V14.01,2013-10-07 15:06:00,
2013-10-07 11:11:00,54.4,49.0,29.83,SSW,207,0.0,3.0,82,0.00,,FEW021,0.07,VWS V14.01,2013-10-07 15:11:00,
2013-10-07 11:16:00,54.8,48.8,29.84,SSW,204,2.0,5.0,80,0.00,,FEW021,0.07,VWS V14.01,2013-10-07 15:16:00,
2013-10-07 11:21:00,54.8,48.8,29.84,South,181,3.0,3.0,80,0.00,,FEW021,0.07,VWS V14.01,2013-10-07 15:21:00,
2013-10-07 11:26:00,54.8,48.8,29.84,WSW,247,1.0,3.0,80,0.00,,FEW021,0.07,VWS V14.01,2013-10-07 15:26:00,
2013-10-07 11:31:00,54.8,48.8,29.84,SW,223,1.0,4.0,80,0.00,,FEW021,0.07,VWS V14.01,2013-10-07 15:31:00,
2013-10-07 11:36:00,54.9,48.9,29.84,SSW,201,1.0,2.0,80,0.00,,FEW021,0.07,VWS V14.01,2013-10-07 15:36:00,
2013-10-07 11:41:00,55.2,48.8,29.84,WSW,244,1.0,5.0,79,0.00,,FEW021,0.07,VWS V14.01,2013-10-07 15:41:00,
2013-10-07 11:46:00,55.5,48.8,29.85,SW,227,2.0,3.0,78,0.00,,FEW021,0.07,VWS V14.01,2013-10-07 15:46:00,
2013-10-07 11:51:00,55.7,48.3,29.84,South,173,4.0,5.0,76,0.00,,BKN027,0.07,VWS V14.01,2013-10-07 15:51:00,
2013-10-07 11:56:00,55.8,48.4,29.85,West,261,7.0,7.0,76,0.00,,BKN027,0.07,VWS V14.01,2013-10-07 15:56:00,
2013-10-07 12:01:00,56.1,49.3,29.85,SSW,210,2.0,2.0,78,0.00,,BKN027,0.07,VWS V14.01,2013-10-07 16:01:00,
2013-10-07 12:07:00,56.6,48.8,29.85,SSW,194,2.0,6.0,75,0.00,,BKN027,0.07,VWS V14.01,2013-10-07 16:07:00,
2013-10-07 12:11:00,56.9,48.3,29.85,South,184,1.0,5.0,73,0.00,,BKN027,0.07,VWS V14.01,2013-10-07 16:11:00,
2013-10-07 12:16:00,57.0,49.2,29.86,SSW,211,2.0,3.0,75,0.00,,BKN027,0.07,VWS V14.01,2013-10-07 16:16:00,
2013-10-07 12:21:00,57.3,48.7,29.86,SSW,192,4.0,4.0,73,0.00,,BKN027,0.07,VWS V14.01,2013-10-07 16:21:00,
2013-10-07 12:26:00,57.5,48.9,29.86,East,99,1.0,5.0,73,0.00,,BKN027,0.07,VWS V14.01,2013-10-07 16:26:00,
2013-10-07 12:32:00,57.7,48.4,29.86,WSW,255,3.0,3.0,71,0.00,,BKN027,0.07,VWS V14.01,2013-10-07 16:32:00,
2013-10-07 12:37:00,58.0,48.7,29.86,WNW,301,7.0,7.0,71,0.00,,BKN027,0.07,VWS V14.01,2013-10-07 16:37:00,
2013-10-07 12:42:00,58.2,49.6,29.86,SW,215,0.0,3.0,73,0.00,,SCT028,0.07,VWS V14.01,2013-10-07 16:42:00,
2013-10-07 12:47:00,58.4,48.3,29.86,NE,34,0.0,1.0,69,0.00,,SCT028,0.07,VWS V14.01,2013-10-07 16:47:00,
2013-10-07 12:52:00,58.6,49.6,29.86,SSW,205,2.0,3.0,72,0.00,,SCT028,0.07,VWS V14.01,2013-10-07 16:52:00,
2013-10-07 12:57:00,59.1,48.6,29.86,SSW,193,3.0,3.0,68,0.00,,SCT028,0.07,VWS V14.01,2013-10-07 16:57:00,
2013-10-07 13:02:00,59.4,48.8,29.86,SSW,199,1.0,4.0,68,0.00,,SCT031,0.07,VWS V14.01,2013-10-07 17:02:00,
2013-10-07 13:06:00,59.9,48.9,29.86,SW,236,0.0,5.0,67,0.00,,SCT031,0.07,VWS V14.01,2013-10-07 17:06:00,
2013-10-07 13:12:00,60.3,48.9,29.86,SSW,199,1.0,2.0,66,0.00,,SCT031,0.07,VWS V14.01,2013-10-07 17:12:00,
2013-10-07 13:17:00,60.6,49.6,29.86,SSW,204,1.0,3.0,67,0.00,,SCT031,0.07,VWS V14.01,2013-10-07 17:17:00,
2013-10-07 13:21:00,60.9,49.5,29.86,SW,233,2.0,5.0,66,0.00,,SCT031,0.07,VWS V14.01,2013-10-07 17:21:00,
2013-10-07 13:26:00,61.1,48.8,29.86,South,180,3.0,6.0,64,0.00,,SCT031,0.07,VWS V14.01,2013-10-07 17:26:00,
2013-10-07 13:32:00,61.2,49.8,29.86,West,273,0.0,1.0,66,0.00,,SCT031,0.07,VWS V14.01,2013-10-07 17:32:00,
2013-10-07 13:37:00,61.3,50.7,29.85,NW,316,0.0,1.0,68,0.00,,SCT031,0.07,VWS V14.01,2013-10-07 17:37:00,
2013-10-07 13:41:00,61.5,48.8,29.85,WSW,244,0.0,6.0,63,0.00,,SCT031,0.07,VWS V14.01,2013-10-07 17:41:00,
2013-10-07 13:47:00,61.7,50.6,29.85,SW,236,3.0,3.0,67,0.00,,SCT031,0.07,VWS V14.01,2013-10-07 17:47:00,
2013-10-07 13:52:00,61.9,49.2,29.85,SSW,213,0.0,1.0,63,0.00,,SCT031,0.07,VWS V14.01,2013-10-07 17:52:00,
2013-10-07 13:57:00,62.2,49.5,29.85,West,278,0.0,2.0,63,0.00,,SCT031,0.07,VWS V14.01,2013-10-07 17:57:00,
2013-10-07 14:02:00,62.4,48.3,29.85,SSW,194,1.0,3.0,60,0.00,,FEW032,0.07,VWS V14.01,2013-10-07 18:02:00,
2013-10-07 14:07:00,62.6,49.8,29.85,SSW,203,3.0,3.0,63,0.00,,FEW032,0.07,VWS V14.01,2013-10-07 18:07:00,
2013-10-07 14:12:00,62.8,48.3,29.85,WNW,284,0.0,5.0,59,0.00,,FEW032,0.07,VWS V14.01,2013-10-07 18:12:00,
2013-10-07 14:17:00,62.9,48.8,29.85,SSW,205,2.0,5.0,60,0.00,,FEW032,0.07,VWS V14.01,2013-10-07 18:17:00,
2013-10-07 14:22:00,63.1,50.7,29.85,SW,221,3.0,5.0,64,0.00,,FEW032,0.07,VWS V14.01,2013-10-07 18:22:00,
2013-10-07 14:26:00,63.3,48.3,29.85,SW,224,3.0,4.0,58,0.00,,FEW032,0.07,VWS V14.01,2013-10-07 18:26:00,
2013-10-07 14:31:00,63.4,47.9,29.85,North,11,1.0,4.0,57,0.00,,FEW032,0.07,VWS V14.01,2013-10-07 18:31:00,
2013-10-07 14:36:00,63.5,47.5,29.85,SW,234,1.0,3.0,56,0.00,,FEW032,0.07,VWS V14.01,2013-10-07 18:36:00,
2013-10-07 14:41:00,63.8,47.3,29.85,SSW,202,1.0,5.0,55,0.00,,FEW032,0.07,VWS V14.01,2013-10-07 18:41:00,
2013-10-07 14:46:00,64.0,47.0,29.85,WSW,257,1.0,3.0,54,0.00,,FEW032,0.07,VWS V14.01,2013-10-07 18:46:00,
2013-10-07 14:51:00,64.3,47.8,29.85,SSW,209,1.0,2.0,55,0.00,,FEW032,0.07,VWS V14.01,2013-10-07 18:51:00,
2013-10-07 14:57:00,64.5,48.0,29.85,WSW,258,5.0,5.0,55,0.00,,FEW032,0.07,VWS V14.01,2013-10-07 18:57:00,
2013-10-07 15:02:00,64.7,47.7,29.85,SW,225,1.0,4.0,54,0.00,,CLR,0.07,VWS V14.01,2013-10-07 19:02:00,
2013-10-07 15:07:00,64.9,47.4,29.85,SW,217,0.0,4.0,53,0.00,,CLR,0.07,VWS V14.01,2013-10-07 19:07:00,
2013-10-07 15:12:00,64.7,46.7,29.85,SSW,197,3.0,3.0,52,0.00,,CLR,0.07,VWS V14.01,2013-10-07 19:12:00,
2013-10-07 15:17:00,64.7,47.7,29.85,WSW,257,0.0,1.0,54,0.00,,CLR,0.07,VWS V14.01,2013-10-07 19:17:00,
2013-10-07 15:22:00,65.0,47.0,29.85,West,267,3.0,4.0,52,0.00,,CLR,0.07,VWS V14.01,2013-10-07 19:22:00,
2013-10-07 15:26:00,65.4,47.3,29.85,WSW,252,1.0,5.0,52,0.00,,CLR,0.07,VWS V14.01,2013-10-07 19:26:00,
2013-10-07 15:31:00,65.5,47.4,29.85,NW,323,0.0,5.0,52,0.00,,CLR,0.07,VWS V14.01,2013-10-07 19:31:00,
2013-10-07 15:37:00,65.6,48.5,29.85,South,188,3.0,3.0,54,0.00,,CLR,0.07,VWS V14.01,2013-10-07 19:37:00,
2013-10-07 15:42:00,65.7,47.1,29.85,NNE,31,0.0,2.0,51,0.00,,CLR,0.07,VWS V14.01,2013-10-07 19:42:00,
2013-10-07 15:46:00,65.7,46.6,29.85,South,188,0.0,3.0,50,0.00,,CLR,0.07,VWS V14.01,2013-10-07 19:46:00,
2013-10-07 15:51:00,65.8,47.7,29.85,South,186,0.0,3.0,52,0.00,,CLR,0.07,VWS V14.01,2013-10-07 19:51:00,
2013-10-07 15:57:00,66.0,47.4,29.85,WNW,294,2.0,5.0,51,0.00,,CLR,0.07,VWS V14.01,2013-10-07 19:57:00,
2013-10-07 16:01:00,66.1,47.5,29.85,WSW,258,0.0,3.0,51,0.00,,CLR,0.07,VWS V14.01,2013-10-07 20:01:00,
2013-10-07 16:06:00,66.3,47.1,29.85,WNW,289,1.0,2.0,50,0.00,,CLR,0.07,VWS V14.01,2013-10-07 20:06:00,
2013-10-07 16:11:00,66.5,46.8,29.85,NW,305,4.0,5.0,49,0.00,,CLR,0.07,VWS V14.01,2013-10-07 20:11:00,
2013-10-07 16:16:00,66.6,49.0,29.85,WSW,240,4.0,4.0,53,0.00,,CLR,0.07,VWS V14.01,2013-10-07 20:16:00,
2013-10-07 16:21:00,66.6,45.8,29.85,West,260,1.0,8.0,47,0.00,,CLR,0.07,VWS V14.01,2013-10-07 20:21:00,
2013-10-07 16:26:00,66.5,46.8,29.85,SSW,202,0.0,2.0,49,0.00,,CLR,0.07,VWS V14.01,2013-10-07 20:26:00,
2013-10-07 16:31:00,66.6,47.4,29.86,NNE,19,0.0,0.0,50,0.00,,CLR,0.07,VWS V14.01,2013-10-07 20:31:00,
2013-10-07 16:36:00,66.7,46.4,29.85,SW,219,0.0,1.0,48,0.00,,CLR,0.07,VWS V14.01,2013-10-07 20:36:00,
2013-10-07 16:41:00,66.8,46.5,29.86,SSW,198,2.0,3.0,48,0.00,,CLR,0.07,VWS V14.01,2013-10-07 20:41:00,
2013-10-07 16:46:00,66.6,45.8,29.86,West,273,1.0,5.0,47,0.00,,CLR,0.07,VWS V14.01,2013-10-07 20:46:00,
2013-10-07 16:51:00,66.5,46.8,29.86,South,180,4.0,4.0,49,0.00,,CLR,0.07,VWS V14.01,2013-10-07 20:51:00,
2013-10-07 16:56:00,66.4,46.1,29.86,NNE,22,0.0,4.0,48,0.00,,CLR,0.07,VWS V14.01,2013-10-07 20:56:00,
2013-10-07 17:02:00,66.3,46.0,29.86,West,267,1.0,1.0,48,0.00,,CLR,0.07,VWS V14.01,2013-10-07 21:02:00,
2013-10-07 17:07:00,66.4,46.7,29.86,South,188,2.0,3.0,49,0.00,,CLR,0.07,VWS V14.01,2013-10-07 21:07:00,
2013-10-07 17:12:00,66.0,46.3,29.86,SW,221,1.0,3.0,49,0.00,,CLR,0.07,VWS V14.01,2013-10-07 21:12:00,
2013-10-07 17:17:00,65.7,46.6,29.86,SSW,205,0.0,4.0,50,0.00,,CLR,0.07,VWS V14.01,2013-10-07 21:17:00,
2013-10-07 17:22:00,65.2,46.1,29.86,West,265,1.0,2.0,50,0.00,,CLR,0.07,VWS V14.01,2013-10-07 21:22:00,
2013-10-07 17:27:00,64.7,45.7,29.86,West,272,2.0,2.0,50,0.00,,CLR,0.07,VWS V14.01,2013-10-07 21:27:00,
2013-10-07 17:32:00,64.4,45.9,29.86,SW,227,2.0,3.0,51,0.00,,CLR,0.07,VWS V14.01,2013-10-07 21:32:00,
2013-10-07 17:37:00,64.1,46.1,29.86,NW,324,0.0,1.0,52,0.00,,CLR,0.07,VWS V14.01,2013-10-07 21:37:00,
2013-10-07 17:42:00,63.7,45.2,29.87,West,267,3.0,4.0,51,0.00,,CLR,0.07,VWS V14.01,2013-10-07 21:42:00,
2013-10-07 17:47:00,63.4,46.0,29.87,West,265,1.0,1.0,53,0.00,,CLR,0.07,VWS V14.01,2013-10-07 21:47:00,
2013-10-07 17:52:00,63.1,44.2,29.87,NW,326,1.0,2.0,50,0.00,,CLR,0.07,VWS V14.01,2013-10-07 21:52:00,
2013-10-07 17:57:00,62.9,46.5,29.87,WSW,244,0.0,1.0,55,0.00,,CLR,0.07,VWS V14.01,2013-10-07 21:57:00,
2013-10-07 18:02:00,62.6,44.8,29.87,West,268,0.0,2.0,52,0.00,,CLR,0.07,VWS V14.01,2013-10-07 22:02:00,
2013-10-07 18:07:00,62.3,44.5,29.87,West,279,0.0,2.0,52,0.00,,CLR,0.07,VWS V14.01,2013-10-07 22:07:00,
2013-10-07 18:12:00,62.0,45.2,29.88,WSW,252,0.0,4.0,54,0.00,,CLR,0.07,VWS V14.01,2013-10-07 22:12:00,
2013-10-07 18:17:00,61.8,45.0,29.88,SW,228,1.0,1.0,54,0.00,,CLR,0.07,VWS V14.01,2013-10-07 22:17:00,
2013-10-07 18:22:00,61.6,45.3,29.88,WNW,290,0.0,0.0,55,0.00,,CLR,0.07,VWS V14.01,2013-10-07 22:22:00,
2013-10-07 18:27:00,61.4,45.6,29.88,NW,319,0.0,1.0,56,0.00,,CLR,0.07,VWS V14.01,2013-10-07 22:27:00,
2013-10-07 18:32:00,61.2,45.9,29.88,WSW,249,0.0,1.0,57,0.00,,CLR,0.07,VWS V14.01,2013-10-07 22:32:00,
2013-10-07 18:37:00,60.9,46.9,29.88,SW,225,0.0,0.0,60,0.00,,CLR,0.07,VWS V14.01,2013-10-07 22:37:00,
2013-10-07 18:42:00,60.6,45.8,29.89,West,259,2.0,2.0,58,0.00,,CLR,0.07,VWS V14.01,2013-10-07 22:42:00,
2013-10-07 18:47:00,60.3,45.0,29.89,West,271,0.0,0.0,57,0.00,,CLR,0.07,VWS V14.01,2013-10-07 22:47:00,
2013-10-07 18:52:00,60.1,45.3,29.89,West,275,0.0,0.0,58,0.00,,CLR,0.07,VWS V14.01,2013-10-07 22:52:00,
2013-10-07 18:57:00,59.8,45.5,29.89,SW,223,1.0,1.0,59,0.00,,CLR,0.07,VWS V14.01,2013-10-07 22:57:00,
2013-10-07 19:02:00,59.6,45.3,29.90,WSW,254,0.0,0.0,59,0.00,,CLR,0.07,VWS V14.01,2013-10-07 23:02:00,
2013-10-07 19:07:00,59.3,45.9,29.90,WSW,254,0.0,0.0,61,0.00,,CLR,0.07,VWS V14.01,2013-10-07 23:07:00,
2013-10-07 19:12:00,59.1,45.7,29.90,West,261,1.0,1.0,61,0.00,,CLR,0.07,VWS V14.01,2013-10-07 23:12:00,
2013-10-07 19:17:00,58.7,46.2,29.90,NW,309,0.0,0.0,63,0.00,,CLR,0.07,VWS V14.01,2013-10-07 23:17:00,
2013-10-07 19:22:00,58.4,46.3,29.91,NW,310,0.0,0.0,64,0.00,,CLR,0.07,VWS V14.01,2013-10-07 23:22:00,
2013-10-07 19:27:00,58.0,46.3,29.91,NW,310,0.0,0.0,65,0.00,,CLR,0.07,VWS V14.01,2013-10-07 23:27:00,
2013-10-07 19:32:00,57.7,46.0,29.91,NW,310,0.0,0.0,65,0.00,,CLR,0.07,VWS V14.01,2013-10-07 23:32:00,
2013-10-07 19:37:00,57.4,45.8,29.91,NNW,348,0.0,0.0,65,0.00,,CLR,0.07,VWS V14.01,2013-10-07 23:37:00,
2013-10-07 19:42:00,57.2,46.0,29.91,NNW,348,0.0,0.0,66,0.00,,CLR,0.07,VWS V14.01,2013-10-07 23:42:00,
2013-10-07 19:47:00,57.1,46.3,29.91,NNW,328,0.0,0.0,67,0.00,,CLR,0.07,VWS V14.01,2013-10-07 23:47:00,
2013-10-07 19:52:00,56.9,46.1,29.92,NNW,327,0.0,0.0,67,0.00,,CLR,0.07,VWS V14.01,2013-10-07 23:52:00,
2013-10-07 19:57:00,56.8,46.0,29.92,NNW,327,0.0,0.0,67,0.00,,CLR,0.07,VWS V14.01,2013-10-07 23:57:00,
2013-10-07 20:02:00,56.6,46.6,29.92,NW,325,1.0,1.0,69,0.00,,CLR,0.07,VWS V14.01,2013-10-08 00:02:00,
2013-10-07 20:07:00,56.4,46.4,29.93,NW,325,0.0,0.0,69,0.00,,CLR,0.07,VWS V14.01,2013-10-08 00:07:00,
2013-10-07 20:12:00,56.3,46.3,29.93,NW,325,0.0,0.0,69,0.00,,CLR,0.07,VWS V14.01,2013-10-08 00:12:00,
2013-10-07 20:17:00,56.1,46.5,29.93,NW,325,0.0,0.0,70,0.00,,CLR,0.07,VWS V14.01,2013-10-08 00:17:00,
2013-10-07 20:22:00,56.0,46.4,29.93,NNE,30,0.0,0.0,70,0.00,,CLR,0.07,VWS V14.01,2013-10-08 00:22:00,
2013-10-07 20:27:00,55.8,46.5,29.93,NNE,30,0.0,0.0,71,0.00,,CLR,0.07,VWS V14.01,2013-10-08 00:27:00,
2013-10-07 20:32:00,55.6,46.4,29.93,NE,34,0.0,0.0,71,0.00,,CLR,0.07,VWS V14.01,2013-10-08 00:32:00,
2013-10-07 20:37:00,55.5,46.6,29.94,NE,34,0.0,0.0,72,0.00,,CLR,0.07,VWS V14.01,2013-10-08 00:37:00,
2013-10-07 20:42:00,55.3,46.4,29.94,NNE,30,0.0,0.0,72,0.00,,CLR,0.07,VWS V14.01,2013-10-08 00:42:00,
2013-10-07 20:47:00,55.2,46.7,29.94,NE,36,1.0,1.0,73,0.00,,CLR,0.07,VWS V14.01,2013-10-08 00:47:00,
2013-10-07 20:52:00,55.1,46.6,29.94,NE,45,0.0,0.0,73,0.00,,CLR,0.07,VWS V14.01,2013-10-08 00:52:00,
2013-10-07 20:57:00,55.0,46.5,29.95,NE,44,0.0,0.0,73,0.00,,CLR,0.07,VWS V14.01,2013-10-08 00:57:00,
2013-10-07 21:02:00,54.9,46.4,29.95,NE,44,0.0,0.0,73,0.00,,CLR,0.07,VWS V14.01,2013-10-08 01:02:00,
2013-10-07 21:07:00,54.7,46.6,29.95,NE,44,0.0,0.0,74,0.00,,CLR,0.07,VWS V14.01,2013-10-08 01:07:00,
2013-10-07 21:12:00,54.6,46.1,29.95,NE,49,0.0,0.0,73,0.00,,CLR,0.07,VWS V14.01,2013-10-08 01:12:00,
2013-10-07 21:17:00,54.5,46.4,29.95,NE,49,0.0,0.0,74,0.00,,CLR,0.07,VWS V14.01,2013-10-08 01:17:00,
2013-10-07 21:22:00,54.3,46.2,29.95,NE,49,0.0,0.0,74,0.00,,CLR,0.07,VWS V14.01,2013-10-08 01:22:00,
2013-10-07 21:27:00,54.1,46.4,29.96,North,355,0.0,0.0,75,0.00,,CLR,0.07,VWS V14.01,2013-10-08 01:27:00,
2013-10-07 21:32:00,54.0,46.3,29.96,North,355,0.0,0.0,75,0.00,,CLR,0.07,VWS V14.01,2013-10-08 01:32:00,
2013-10-07 21:37:00,53.9,46.5,29.96,North,355,0.0,0.0,76,0.00,,CLR,0.07,VWS V14.01,2013-10-08 01:37:00,
2013-10-07 21:42:00,53.7,46.3,29.96,North,355,0.0,0.0,76,0.00,,CLR,0.07,VWS V14.01,2013-10-08 01:42:00,
2013-10-07 21:47:00,53.6,46.2,29.96,North,355,0.0,0.0,76,0.00,,CLR,0.07,VWS V14.01,2013-10-08 01:47:00,
2013-10-07 21:52:00,53.5,46.1,29.97,North,355,0.0,0.0,76,0.00,,CLR,0.07,VWS V14.01,2013-10-08 01:52:00,
2013-10-07 21:57:00,53.3,46.3,29.97,North,355,0.0,0.0,77,0.00,,CLR,0.07,VWS V14.01,2013-10-08 01:57:00,
2013-10-07 22:02:00,53.2,46.2,29.97,North,355,0.0,0.0,77,0.00,,CLR,0.07,VWS V14.01,2013-10-08 02:02:00,
2013-10-07 22:07:00,53.0,46.0,29.97,North,355,0.0,0.0,77,0.00,,CLR,0.07,VWS V14.01,2013-10-08 02:07:00,
2013-10-07 22:12:00,52.9,46.6,29.97,North,355,0.0,0.0,79,0.00,,CLR,0.07,VWS V14.01,2013-10-08 02:12:00,
2013-10-07 22:17:00,52.8,46.5,29.98,North,355,0.0,0.0,79,0.00,,CLR,0.07,VWS V14.01,2013-10-08 02:17:00,
2013-10-07 22:22:00,52.5,46.5,29.98,North,355,0.0,0.0,80,0.00,,CLR,0.07,VWS V14.01,2013-10-08 02:22:00,
2013-10-07 22:27:00,52.1,46.1,29.98,North,355,0.0,0.0,80,0.00,,CLR,0.07,VWS V14.01,2013-10-08 02:27:00,
2013-10-07 22:32:00,51.9,46.6,29.98,North,355,0.0,0.0,82,0.00,,CLR,0.07,VWS V14.01,2013-10-08 02:32:00,
2013-10-07 22:37:00,51.6,46.6,29.98,North,355,0.0,0.0,83,0.00,,CLR,0.07,VWS V14.01,2013-10-08 02:37:00,
2013-10-07 22:42:00,51.4,46.7,29.98,North,355,0.0,0.0,84,0.00,,CLR,0.07,VWS V14.01,2013-10-08 02:42:00,
2013-10-07 22:47:00,51.2,46.2,29.98,North,355,0.0,0.0,83,0.00,,CLR,0.07,VWS V14.01,2013-10-08 02:47:00,
2013-10-07 22:52:00,51.0,46.3,29.98,North,355,0.0,0.0,84,0.00,,CLR,0.07,VWS V14.01,2013-10-08 02:52:00,
2013-10-07 22:57:00,50.9,46.6,29.98,North,355,0.0,0.0,85,0.00,,CLR,0.07,VWS V14.01,2013-10-08 02:57:00,
2013-10-07 23:02:00,50.7,46.4,29.98,North,355,0.0,0.0,85,0.00,,CLR,0.07,VWS V14.01,2013-10-08 03:02:00,
2013-10-07 23:07:00,50.5,46.2,29.99,North,355,0.0,0.0,85,0.00,,CLR,0.07,VWS V14.01,2013-10-08 03:07:00,
2013-10-07 23:12:00,50.3,46.3,29.98,North,355,0.0,0.0,86,0.00,,CLR,0.07,VWS V14.01,2013-10-08 03:12:00,
2013-10-07 23:17:00,50.1,46.1,29.99,North,355,0.0,0.0,86,0.00,,CLR,0.07,VWS V14.01,2013-10-08 03:17:00,
2013-10-07 23:22:00,50.0,46.0,29.99,North,355,0.0,0.0,86,0.00,,CLR,0.07,VWS V14.01,2013-10-08 03:22:00,
2013-10-07 23:27:00,49.9,46.2,29.98,North,355,0.0,0.0,87,0.00,,CLR,0.07,VWS V14.01,2013-10-08 03:27:00,
2013-10-07 23:32:00,49.8,46.1,29.99,North,355,0.0,0.0,87,0.00,,CLR,0.07,VWS V14.01,2013-10-08 03:32:00,
2013-10-07 23:37:00,49.7,46.0,29.99,North,355,0.0,0.0,87,0.00,,CLR,0.07,VWS V14.01,2013-10-08 03:37:00,
2013-10-07 23:42:00,49.5,46.1,29.99,North,355,0.0,0.0,88,0.00,,CLR,0.07,VWS V14.01,2013-10-08 03:42:00,
2013-10-07 23:47:00,49.4,46.0,29.99,North,355,0.0,0.0,88,0.00,,CLR,0.07,VWS V14.01,2013-10-08 03:47:00,
2013-10-07 23:52:00,49.2,46.1,29.99,North,355,0.0,0.0,89,0.00,,CLR,0.07,VWS V14.01,2013-10-08 03:52:00,
2013-10-07 23:57:00,49.0,45.9,29.99,North,355,0.0,0.0,89,0.00,,CLR,0.07,VWS V14.01,2013-10-08 03:57:00,